Menomonie, WI

6:44 PM CDT on August 17, 2017 (GMT -0500)
Menomonie

Weather History for KLUM - November, 2011

Change the Weather History Date:

Saturday, November 12, 2011

  Actual Average (KEAU) Record (KEAU)
Temperature  
Mean Temperature 42 °F -  
Max Temperature 60 °F 38 °F 63 °F (2005)
Min Temperature 24 °F 22 °F 1 °F (1986)
Degree Days  
Heating Degree Days 23    
Moisture  
Dew Point 29 °F    
Average Humidity 65    
Maximum Humidity 93    
Minimum Humidity 27    
Precipitation  
Precipitation 0.00 in - - ()
Sea Level Pressure  
Sea Level Pressure 29.52 in    
Wind  
Wind Speed 5 mph (SE)    
Max Wind Speed 15 mph    
Max Gust Speed 20 mph    
Visibility 9 miles    
Events      
Averages and records for this station are not official NWS values.
T = Trace of Precipitation, MM = Missing Value Source: NWS Daily Summary

Daily Weather History Graph

Daily Weather History Graph

Search for Another Location

Airport or City:

Trip Planner

Search our weather history database for the weather conditions in past years. The results will help you decide how hot, cold, wet, or windy it might be!

Date:

Astronomy

Nov. 12, 2011 Rise Set
Actual Time 7:00 AM CST 4:42 PM CST
Civil Twilight 6:28 AM CST 5:13 PM CST
Nautical Twilight 5:53 AM CST 5:48 PM CST
Astronomical Twilight 5:19 AM CST 6:23 PM CST
Moon 5:53 PM CST (11/12) 8:47 AM CST (11/12)
Length of Visible Light 10h 44m
Length of Day
9h 41m
Full, 97% of the Moon is Illuminated
Nov 12
Full
Nov 18
Last Quarter
Nov 25
New
Dec 2
First Quarter
Dec 10
Full

Hourly Weather History & Observations

Time (CST) Temp. Windchill Dew Point Humidity Pressure Visibility Wind Dir Wind Speed Gust Speed Precip Events Conditions
12:15 AM 32.0 °F - 28.4 °F 87% 29.61 in 10.0 mi Calm Calm - N/A   Clear
12:35 AM 33.8 °F 29.6 °F 28.4 °F 81% 29.60 in 10.0 mi SE 4.6 mph - N/A   Clear
12:55 AM 32.0 °F 28.7 °F 26.6 °F 80% 29.60 in 10.0 mi ESE 3.5 mph - N/A   Clear
1:15 AM 32.0 °F - 28.4 °F 87% 29.60 in 10.0 mi Calm Calm - N/A   Clear
1:35 AM 30.2 °F 26.7 °F 26.6 °F 86% 29.60 in 10.0 mi East 3.5 mph - N/A   Clear
1:55 AM 28.4 °F 24.6 °F 24.8 °F 86% 29.59 in 10.0 mi East 3.5 mph - N/A   Clear
2:15 AM 28.4 °F 24.6 °F 26.6 °F 93% 29.60 in 10.0 mi East 3.5 mph - N/A   Clear
2:35 AM 28.4 °F 23.3 °F 26.6 °F 93% 29.59 in 7.0 mi ESE 4.6 mph - N/A   Clear
2:55 AM 30.2 °F 24.3 °F 28.4 °F 93% 29.59 in 10.0 mi East 5.8 mph - N/A   Clear
3:15 AM 30.2 °F 25.4 °F 26.6 °F 86% 29.59 in 10.0 mi ESE 4.6 mph - N/A   Clear
3:35 AM 32.0 °F 27.5 °F 28.4 °F 87% 29.58 in 10.0 mi ESE 4.6 mph - N/A   Clear
3:55 AM 30.2 °F 25.4 °F 26.6 °F 86% 29.59 in 10.0 mi ESE 4.6 mph - N/A   Clear
4:15 AM 28.4 °F 23.3 °F 26.6 °F 93% 29.59 in 10.0 mi ESE 4.6 mph - N/A   Clear
4:35 AM 28.4 °F 24.6 °F 26.6 °F 93% 29.59 in 10.0 mi ESE 3.5 mph - N/A   Clear
4:55 AM 28.4 °F - 24.8 °F 86% 29.59 in 10.0 mi Calm Calm - N/A   Clear
5:15 AM 28.4 °F - 26.6 °F 93% 29.59 in 7.0 mi Calm Calm - N/A   Clear
5:35 AM 26.6 °F 22.6 °F 23.0 °F 86% 29.59 in 7.0 mi East 3.5 mph - N/A   Clear
5:55 AM 26.6 °F 21.2 °F 23.0 °F 86% 29.59 in 7.0 mi East 4.6 mph - N/A   Clear
6:15 AM 24.8 °F 20.5 °F 23.0 °F 93% 29.60 in 7.0 mi East 3.5 mph - N/A   Clear
6:35 AM 28.4 °F 24.6 °F 26.6 °F 93% 29.60 in 7.0 mi SE 3.5 mph - N/A   Clear
6:55 AM 28.4 °F 23.3 °F 26.6 °F 93% 29.60 in 7.0 mi ESE 4.6 mph - N/A   Clear
7:15 AM 28.4 °F 21.2 °F 26.6 °F 93% 29.60 in 7.0 mi ESE 6.9 mph - N/A   Clear
7:35 AM 28.4 °F 22.2 °F 26.6 °F 93% 29.59 in 7.0 mi ESE 5.8 mph - N/A   Clear
7:55 AM 30.2 °F 25.4 °F 26.6 °F 86% 29.59 in 7.0 mi ESE 4.6 mph - N/A   Clear
8:15 AM 32.0 °F 26.4 °F 28.4 °F 87% 29.59 in 7.0 mi ESE 5.8 mph - N/A   Clear
8:35 AM 32.0 °F 26.4 °F 30.2 °F 93% 29.58 in 10.0 mi East 5.8 mph - N/A   Clear
8:55 AM 33.8 °F 29.6 °F 30.2 °F 87% 29.58 in 10.0 mi East 4.6 mph - N/A   Clear
9:15 AM 35.6 °F 30.7 °F 30.2 °F 81% 29.58 in 10.0 mi East 5.8 mph - N/A   Clear
9:55 AM 41.0 °F 38.0 °F 32.0 °F 70% 29.56 in 10.0 mi ESE 4.6 mph - N/A   Clear
10:15 AM 44.6 °F 43.1 °F 32.0 °F 61% 29.58 in 10.0 mi ESE 3.5 mph - N/A   Clear
10:35 AM 50.0 °F - 30.2 °F 47% 29.56 in 10.0 mi SSE 6.9 mph - N/A   Clear
10:55 AM 51.8 °F - 28.4 °F 41% 29.56 in 10.0 mi SE 8.1 mph - N/A   Clear
11:15 AM 51.8 °F - 28.4 °F 41% 29.55 in 10.0 mi SSE 6.9 mph - N/A   Clear
11:35 AM 55.4 °F - 28.4 °F 36% 29.54 in 10.0 mi South 4.6 mph - N/A   Clear
12:15 PM 59.0 °F - 26.6 °F 29% 29.52 in 10.0 mi South 8.1 mph - N/A   Clear
12:35 PM 60.8 °F - 28.4 °F 29% 29.52 in 10.0 mi South 9.2 mph - N/A   Clear
12:55 PM 60.8 °F - 26.6 °F 27% 29.51 in 10.0 mi South 9.2 mph - N/A   Clear
1:15 PM 59.0 °F - 26.6 °F 29% 29.50 in 10.0 mi South 5.8 mph 9.2 mph N/A   Clear
1:35 PM 59.0 °F - 26.6 °F 29% 29.49 in 10.0 mi SSE 13.8 mph 17.3 mph N/A   Clear
1:55 PM 59.0 °F - 26.6 °F 29% 29.48 in 10.0 mi SSE 10.4 mph - N/A   Clear
2:15 PM 59.0 °F - 26.6 °F 29% 29.47 in 10.0 mi SSE 8.1 mph - N/A   Clear
2:35 PM 59.0 °F - 26.6 °F 29% 29.47 in 10.0 mi South 15.0 mph 19.6 mph N/A   Clear
2:55 PM 57.2 °F - 28.4 °F 33% 29.46 in 10.0 mi South 12.7 mph - N/A   Clear
3:15 PM 57.2 °F - 28.4 °F 33% 29.46 in 10.0 mi SSE 10.4 mph - N/A   Clear
3:35 PM 55.4 °F - 30.2 °F 38% 29.44 in 10.0 mi SE 9.2 mph - N/A   Clear
3:55 PM 55.4 °F - 32.0 °F 41% 29.43 in 10.0 mi ESE 8.1 mph - N/A   Clear
4:15 PM 51.8 °F - 32.0 °F 47% 29.42 in 10.0 mi ESE 6.9 mph - N/A   Clear
4:35 PM 51.8 °F - 32.0 °F 47% 29.41 in 10.0 mi East 4.6 mph - N/A   Clear
4:55 PM 50.0 °F - 32.0 °F 50% 29.41 in 10.0 mi ESE 8.1 mph - N/A   Clear
5:15 PM 51.8 °F - 32.0 °F 47% 29.41 in 10.0 mi ESE 9.2 mph - N/A   Clear
5:35 PM 51.8 °F - 32.0 °F 47% 29.40 in 10.0 mi SE 10.4 mph - N/A   Clear
5:55 PM 51.8 °F - 33.8 °F 50% 29.39 in 10.0 mi SSE 11.5 mph - N/A   Clear
6:15 PM 51.8 °F - 33.8 °F 50% 29.39 in 10.0 mi SE 10.4 mph - N/A   Clear
6:35 PM 50.0 °F - 33.8 °F 54% 29.37 in 10.0 mi SE 12.7 mph - N/A   Clear
6:55 PM 50.0 °F - 35.6 °F 58% 29.37 in 10.0 mi SE 6.9 mph - N/A   Clear
7:35 PM 50.0 °F - 35.6 °F 58% 29.38 in 10.0 mi SSE 9.2 mph - N/A   Clear
7:55 PM 48.2 °F - 35.6 °F 62% 29.37 in 10.0 mi SSE 11.5 mph - N/A   Clear
8:15 PM 50.0 °F - 35.6 °F 58% 29.35 in 10.0 mi SSE 10.4 mph - N/A   Clear
8:35 PM 50.0 °F - 35.6 °F 58% 29.34 in 10.0 mi SSE 12.7 mph - N/A   Clear
8:55 PM 50.0 °F - 33.8 °F 54% 29.34 in 10.0 mi SSE 10.4 mph - N/A   Clear
9:15 PM 50.0 °F - 33.8 °F 54% 29.33 in 10.0 mi SSE 11.5 mph - N/A   Clear
9:35 PM 50.0 °F - 33.8 °F 54% 29.31 in 10.0 mi SSE 11.5 mph - N/A   Clear
9:55 PM 50.0 °F - 33.8 °F 54% 29.31 in 10.0 mi SE 9.2 mph - N/A   Clear
10:15 PM 50.0 °F - 33.8 °F 54% 29.29 in 10.0 mi SSE 10.4 mph - N/A   Clear
10:35 PM 50.0 °F - 33.8 °F 54% 29.28 in 10.0 mi SSE 11.5 mph 16.1 mph N/A   Clear
10:55 PM 50.0 °F - 33.8 °F 54% 29.28 in 10.0 mi SSE 8.1 mph - N/A   Clear
11:15 PM 50.0 °F - 33.8 °F 54% 29.27 in 10.0 mi SSE 8.1 mph 17.3 mph N/A   Clear
11:35 PM 48.2 °F - 32.0 °F 54% 29.26 in 10.0 mi SSE 8.1 mph - N/A   Clear
11:55 PM 46.4 °F 43.5 °F 32.0 °F 57% 29.26 in 10.0 mi SSE 5.8 mph - N/A   Clear